TimeEST,TemperatureF,Dew PointF,Humidity,Sea Level PressureIn,VisibilityMPH,Wind Direction,Wind SpeedMPH,Gust SpeedMPH,PrecipitationIn,Events,Conditions,WindDirDegrees,DateUTC
12:15 AM,31.8,22.1,67,30.44,10.0,Calm,Calm,-,N/A,,Overcast,0,2013-01-27 05:15:00
12:35 AM,31.8,22.1,67,30.44,10.0,Calm,Calm,-,N/A,,Overcast,0,2013-01-27 05:35:00
12:55 AM,31.1,22.6,71,30.45,10.0,Calm,Calm,-,N/A,,Overcast,0,2013-01-27 05:55:00
1:15 AM,31.6,22.1,68,30.45,10.0,Calm,Calm,-,N/A,,Overcast,0,2013-01-27 06:15:00
1:35 AM,31.8,22.8,69,30.45,10.0,Calm,Calm,-,N/A,,Overcast,0,2013-01-27 06:35:00
1:55 AM,30.9,23.2,73,30.46,10.0,Calm,Calm,-,N/A,,Overcast,0,2013-01-27 06:55:00
2:15 AM,30.7,23.0,73,30.47,10.0,Calm,Calm,-,N/A,,Overcast,0,2013-01-27 07:15:00
2:35 AM,30.7,23.0,73,30.47,10.0,Calm,Calm,-,N/A,,Overcast,0,2013-01-27 07:35:00
2:55 AM,30.4,22.8,73,30.47,10.0,Calm,Calm,-,N/A,,Overcast,0,2013-01-27 07:55:00
3:15 AM,31.1,21.4,67,30.47,10.0,Calm,Calm,-,N/A,,Overcast,0,2013-01-27 08:15:00
3:35 AM,30.9,21.4,68,30.48,10.0,Calm,Calm,-,N/A,,Overcast,0,2013-01-27 08:35:00
3:55 AM,29.8,23.2,76,30.49,10.0,Calm,Calm,-,N/A,,Overcast,0,2013-01-27 08:55:00
4:15 AM,30.2,22.3,72,30.49,10.0,Calm,Calm,-,N/A,,Overcast,0,2013-01-27 09:15:00
4:35 AM,29.3,24.6,83,30.47,10.0,Calm,Calm,-,N/A,,Overcast,0,2013-01-27 09:35:00
4:55 AM,29.3,24.3,81,30.48,10.0,Calm,Calm,-,N/A,,Overcast,0,2013-01-27 09:55:00
5:15 AM,29.5,23.7,79,30.48,10.0,Calm,Calm,-,N/A,,Overcast,0,2013-01-27 10:15:00
5:35 AM,29.8,22.1,73,30.50,10.0,Calm,Calm,-,N/A,,Overcast,0,2013-01-27 10:35:00
5:55 AM,29.8,22.1,73,30.50,10.0,Calm,Calm,-,N/A,,Overcast,0,2013-01-27 10:55:00
6:15 AM,29.1,22.3,76,30.52,10.0,Calm,Calm,-,N/A,,Overcast,0,2013-01-27 11:15:00
6:35 AM,29.3,21.9,74,30.52,10.0,Calm,Calm,-,N/A,,Overcast,0,2013-01-27 11:35:00
6:55 AM,28.8,23.4,80,30.52,10.0,Calm,Calm,-,N/A,,Overcast,0,2013-01-27 11:55:00
7:15 AM,28.4,23.2,81,30.54,10.0,Calm,Calm,-,N/A,,Overcast,0,2013-01-27 12:15:00
7:35 AM,28.0,22.5,80,30.55,10.0,Calm,Calm,-,N/A,,Mostly Cloudy,0,2013-01-27 12:35:00
7:55 AM,27.1,22.5,83,30.56,10.0,Calm,Calm,-,N/A,,Scattered Clouds,0,2013-01-27 12:55:00
8:15 AM,28.2,22.6,80,30.57,10.0,Calm,Calm,-,N/A,,Scattered Clouds,0,2013-01-27 13:15:00
8:35 AM,30.6,21.4,69,30.57,10.0,Calm,Calm,-,N/A,,Clear,0,2013-01-27 13:35:00
8:55 AM,31.8,20.8,64,30.58,10.0,NNE,3.5,-,N/A,,Clear,20,2013-01-27 13:55:00
9:15 AM,32.0,19.6,60,30.59,10.0,NNW,5.8,-,N/A,,Clear,340,2013-01-27 14:15:00
9:35 AM,32.9,19.0,57,30.60,10.0,North,5.8,-,N/A,,Scattered Clouds,350,2013-01-27 14:35:00
9:55 AM,33.1,19.2,57,30.61,10.0,North,5.8,-,N/A,,Scattered Clouds,10,2013-01-27 14:55:00
10:15 AM,33.8,18.9,54,30.61,10.0,North,6.9,-,N/A,,Mostly Cloudy,350,2013-01-27 15:15:00
10:35 AM,33.8,18.9,54,30.61,10.0,NE,5.8,-,N/A,,Mostly Cloudy,50,2013-01-27 15:35:00
10:55 AM,34.2,19.2,54,30.60,10.0,North,3.5,-,N/A,,Scattered Clouds,360,2013-01-27 15:55:00
11:15 AM,34.3,19.4,54,30.60,10.0,NNE,4.6,-,N/A,,Scattered Clouds,30,2013-01-27 16:15:00
11:35 AM,34.2,18.7,53,30.59,10.0,Calm,Calm,-,N/A,,Scattered Clouds,0,2013-01-27 16:35:00
11:55 AM,35.6,19.2,51,30.59,10.0,Calm,Calm,-,N/A,,Mostly Cloudy,0,2013-01-27 16:55:00
12:15 PM,35.6,19.2,51,30.58,10.0,NNW,5.8,-,N/A,,Mostly Cloudy,340,2013-01-27 17:15:00
12:35 PM,35.4,18.3,50,30.57,10.0,NNW,3.5,-,N/A,,Scattered Clouds,330,2013-01-27 17:35:00
12:55 PM,36.1,19.0,50,30.56,10.0,WNW,5.8,-,N/A,,Clear,300,2013-01-27 17:55:00
1:15 PM,37.2,20.7,51,30.55,10.0,West,4.6,-,N/A,,Clear,270,2013-01-27 18:15:00
1:35 PM,36.9,19.0,49,30.54,10.0,Calm,Calm,-,N/A,,Clear,0,2013-01-27 18:35:00
1:55 PM,37.9,19.2,47,30.53,10.0,West,6.9,-,N/A,,Clear,270,2013-01-27 18:55:00
2:15 PM,38.3,18.3,45,30.53,10.0,Calm,Calm,-,N/A,,Clear,0,2013-01-27 19:15:00
2:35 PM,38.7,18.0,43,30.53,10.0,WSW,3.5,-,N/A,,Clear,250,2013-01-27 19:35:00
2:55 PM,39.2,18.1,43,30.52,10.0,Calm,Calm,-,N/A,,Clear,0,2013-01-27 19:55:00
3:15 PM,38.8,17.2,42,30.52,10.0,West,4.6,-,N/A,,Clear,280,2013-01-27 20:15:00
3:35 PM,38.5,17.1,42,30.51,10.0,Calm,Calm,-,N/A,,Clear,0,2013-01-27 20:35:00
3:55 PM,38.7,17.8,43,30.52,10.0,West,3.5,-,N/A,,Clear,270,2013-01-27 20:55:00
4:15 PM,37.9,18.0,45,30.53,10.0,WNW,3.5,-,N/A,,Clear,290,2013-01-27 21:15:00
4:35 PM,37.6,18.7,47,30.53,10.0,Calm,Calm,-,N/A,,Clear,0,2013-01-27 21:35:00
4:55 PM,36.5,19.4,50,30.53,10.0,Calm,Calm,-,N/A,,Clear,0,2013-01-27 21:55:00
5:15 PM,35.6,20.1,53,30.53,10.0,Calm,Calm,-,N/A,,Clear,0,2013-01-27 22:15:00
5:35 PM,34.9,19.4,53,30.54,10.0,ESE,3.5,-,N/A,,Clear,120,2013-01-27 22:35:00
5:55 PM,33.3,20.5,59,30.54,10.0,Calm,Calm,-,N/A,,Clear,0,2013-01-27 22:55:00
6:15 PM,31.3,21.7,68,30.54,10.0,Calm,Calm,-,N/A,,Clear,0,2013-01-27 23:15:00
6:35 PM,31.1,21.4,67,30.54,10.0,Calm,Calm,-,N/A,,Clear,0,2013-01-27 23:35:00
6:55 PM,29.5,21.7,73,30.54,10.0,Calm,Calm,-,N/A,,Clear,0,2013-01-27 23:55:00
7:15 PM,29.1,22.1,75,30.54,10.0,Calm,Calm,-,N/A,,Clear,0,2013-01-28 00:15:00
7:35 PM,29.7,22.1,73,30.53,10.0,Calm,Calm,-,N/A,,Clear,0,2013-01-28 00:35:00
7:55 PM,28.4,22.5,78,30.54,10.0,Calm,Calm,-,N/A,,Clear,0,2013-01-28 00:55:00
8:15 PM,28.6,21.9,76,30.53,10.0,Calm,Calm,-,N/A,,Clear,0,2013-01-28 01:15:00
8:35 PM,28.4,21.4,75,30.53,10.0,SSE,3.5,-,N/A,,Clear,160,2013-01-28 01:35:00
8:55 PM,27.3,22.1,81,30.52,10.0,SSE,4.6,-,N/A,,Clear,150,2013-01-28 01:55:00
9:15 PM,29.3,21.4,72,30.51,10.0,SE,3.5,-,N/A,,Clear,140,2013-01-28 02:15:00
9:35 PM,29.7,21.2,71,30.54,10.0,Calm,Calm,-,N/A,,Clear,0,2013-01-28 02:35:00
9:55 PM,27.5,21.2,77,30.54,10.0,Calm,Calm,-,N/A,,Clear,0,2013-01-28 02:55:00
10:15 PM,26.6,21.4,81,30.54,10.0,Calm,Calm,-,N/A,,Clear,0,2013-01-28 03:15:00
10:35 PM,27.5,21.9,80,30.53,10.0,Calm,Calm,-,N/A,,Clear,0,2013-01-28 03:35:00
10:55 PM,29.3,22.3,75,30.52,10.0,South,4.6,-,N/A,,Clear,170,2013-01-28 03:55:00
11:15 PM,30.2,22.1,72,30.52,10.0,Calm,Calm,-,N/A,,Clear,0,2013-01-28 04:15:00
11:35 PM,30.2,22.6,73,30.51,10.0,SSE,3.5,-,N/A,,Clear,150,2013-01-28 04:35:00
11:55 PM,30.9,22.6,71,30.51,10.0,Calm,Calm,-,N/A,,Clear,0,2013-01-28 04:55:00